Time,TemperatureF,DewpointF,PressureIn,WindDirection,WindDirectionDegrees,WindSpeedMPH,WindSpeedGustMPH,Humidity,HourlyPrecipIn,Conditions,Clouds,dailyrainin,SoftwareType,DateUTC
2013-01-26 00:00:00,22.1,18.8,30.09,WSW,247,0.0,0.0,87,0.00,,,0.00,Wunderground v.1.15,2013-01-26 05:00:00,
2013-01-26 00:10:00,22.2,18.9,30.10,WSW,256,1.0,1.0,87,0.00,,,0.00,Wunderground v.1.15,2013-01-26 05:10:00,
2013-01-26 00:15:00,22.2,18.7,30.10,WSW,257,1.0,2.0,86,0.00,,,0.00,Wunderground v.1.15,2013-01-26 05:15:00,
2013-01-26 00:21:00,22.3,19.0,30.10,West,259,1.0,1.0,87,0.00,,,0.00,Wunderground v.1.15,2013-01-26 05:21:00,
2013-01-26 00:31:00,22.4,18.8,30.10,West,265,1.0,2.0,86,0.00,,,0.00,Wunderground v.1.15,2013-01-26 05:31:00,
2013-01-26 00:40:00,22.5,18.9,30.10,NW,306,1.0,2.0,86,0.00,,,0.00,Wunderground v.1.15,2013-01-26 05:40:00,
2013-01-26 00:55:00,22.7,19.1,30.10,NW,306,0.0,0.0,86,0.00,,,0.00,Wunderground v.1.15,2013-01-26 05:55:00,
2013-01-26 01:00:00,22.7,19.1,30.10,NW,306,0.0,1.0,86,0.00,,,0.00,Wunderground v.1.15,2013-01-26 06:00:00,
2013-01-26 01:05:00,22.9,19.3,30.10,NW,306,0.0,1.0,86,0.00,,,0.00,Wunderground v.1.15,2013-01-26 06:05:00,
2013-01-26 01:11:00,22.9,19.3,30.10,NW,306,0.0,0.0,86,0.00,,,0.00,Wunderground v.1.15,2013-01-26 06:11:00,
2013-01-26 01:25:00,23.1,19.5,30.10,NW,306,1.0,1.0,86,0.00,,,0.00,Wunderground v.1.15,2013-01-26 06:25:00,
2013-01-26 01:30:00,23.3,19.5,30.10,NW,306,1.0,1.0,85,0.00,,,0.00,Wunderground v.1.15,2013-01-26 06:30:00,
2013-01-26 01:35:00,23.3,19.5,30.10,NW,306,1.0,1.0,85,0.00,,,0.00,Wunderground v.1.15,2013-01-26 06:35:00,
2013-01-26 01:40:00,23.4,19.6,30.09,NW,306,0.0,1.0,85,0.00,,,0.00,Wunderground v.1.15,2013-01-26 06:40:00,
2013-01-26 01:50:00,23.5,19.7,30.09,NW,306,0.0,2.0,85,0.00,,,0.00,Wunderground v.1.15,2013-01-26 06:50:00,
2013-01-26 02:00:00,23.6,19.8,30.10,NW,306,0.0,0.0,85,0.00,,,0.00,Wunderground v.1.15,2013-01-26 07:00:00,
2013-01-26 02:06:00,23.6,19.5,30.10,NW,306,1.0,2.0,84,0.00,,,0.00,Wunderground v.1.15,2013-01-26 07:06:00,
2013-01-26 02:11:00,23.7,19.6,30.10,NW,306,0.0,0.0,84,0.00,,,0.00,Wunderground v.1.15,2013-01-26 07:11:00,
2013-01-26 02:20:00,23.8,19.7,30.10,NW,306,1.0,1.0,84,0.00,,,0.00,Wunderground v.1.15,2013-01-26 07:20:00,
2013-01-26 02:30:00,23.9,19.8,30.10,NW,306,1.0,2.0,84,0.00,,,0.00,Wunderground v.1.15,2013-01-26 07:30:00,
2013-01-26 02:36:00,23.9,19.8,30.10,NW,306,1.0,1.0,84,0.00,,,0.00,Wunderground v.1.15,2013-01-26 07:36:00,
2013-01-26 02:41:00,23.9,19.8,30.10,NW,306,1.0,2.0,84,0.00,,,0.00,Wunderground v.1.15,2013-01-26 07:41:00,
2013-01-26 02:50:00,24.0,19.9,30.11,NW,306,1.0,1.0,84,0.00,,,0.00,Wunderground v.1.15,2013-01-26 07:50:00,
2013-01-26 03:00:00,24.0,19.9,30.11,NW,306,1.0,4.0,84,0.00,,,0.00,Wunderground v.1.15,2013-01-26 08:00:00,
2013-01-26 03:10:00,24.0,19.9,30.11,NW,306,1.0,1.0,84,0.00,,,0.00,Wunderground v.1.15,2013-01-26 08:10:00,
2013-01-26 03:20:00,24.0,19.9,30.11,NW,306,1.0,1.0,84,0.00,,,0.00,Wunderground v.1.15,2013-01-26 08:20:00,
2013-01-26 03:31:00,24.0,19.9,30.11,NW,306,1.0,3.0,84,0.00,,,0.00,Wunderground v.1.15,2013-01-26 08:31:00,
2013-01-26 03:36:00,24.1,20.0,30.11,NW,308,2.0,3.0,84,0.00,,,0.00,Wunderground v.1.15,2013-01-26 08:36:00,
2013-01-26 03:41:00,24.1,20.0,30.11,NW,308,1.0,1.0,84,0.00,,,0.00,Wunderground v.1.15,2013-01-26 08:41:00,
2013-01-26 03:55:00,24.2,20.1,30.12,NW,308,1.0,1.0,84,0.00,,,0.00,Wunderground v.1.15,2013-01-26 08:55:00,
2013-01-26 04:05:00,24.2,19.8,30.13,NW,308,1.0,3.0,83,0.00,,,0.00,Wunderground v.1.15,2013-01-26 09:05:00,
2013-01-26 04:10:00,24.2,19.8,30.13,NW,308,1.0,3.0,83,0.00,,,0.00,Wunderground v.1.15,2013-01-26 09:10:00,
2013-01-26 04:21:00,24.2,19.8,30.13,NW,308,0.0,1.0,83,0.00,,,0.00,Wunderground v.1.15,2013-01-26 09:21:00,
2013-01-26 04:31:00,24.2,19.8,30.14,NW,308,0.0,1.0,83,0.00,,,0.00,Wunderground v.1.15,2013-01-26 09:31:00,
2013-01-26 04:40:00,24.2,19.8,30.14,NW,308,0.0,1.0,83,0.00,,,0.00,Wunderground v.1.15,2013-01-26 09:40:00,
2013-01-26 04:50:00,24.3,19.9,30.15,NW,308,1.0,2.0,83,0.00,,,0.00,Wunderground v.1.15,2013-01-26 09:50:00,
2013-01-26 05:01:00,24.2,19.8,30.15,NW,308,0.0,0.0,83,0.00,,,0.00,Wunderground v.1.15,2013-01-26 10:01:00,
2013-01-26 05:11:00,24.3,19.9,30.15,NW,308,1.0,1.0,83,0.00,,,0.00,Wunderground v.1.15,2013-01-26 10:11:00,
2013-01-26 05:20:00,24.4,19.7,30.15,NW,308,1.0,2.0,82,0.00,,,0.00,Wunderground v.1.15,2013-01-26 10:20:00,
2013-01-26 05:30:00,24.5,19.8,30.16,NW,308,0.0,1.0,82,0.00,,,0.00,Wunderground v.1.15,2013-01-26 10:30:00,
2013-01-26 05:35:00,24.5,19.8,30.16,NW,308,0.0,0.0,82,0.00,,,0.00,Wunderground v.1.15,2013-01-26 10:35:00,
2013-01-26 05:41:00,24.5,19.8,30.16,NW,308,0.0,0.0,82,0.00,,,0.00,Wunderground v.1.15,2013-01-26 10:41:00,
2013-01-26 05:51:00,24.6,20.2,30.16,NW,308,0.0,0.0,83,0.00,,,0.00,Wunderground v.1.15,2013-01-26 10:51:00,
2013-01-26 06:00:00,24.6,20.2,30.17,NW,308,1.0,1.0,83,0.00,,,0.00,Wunderground v.1.15,2013-01-26 11:00:00,
2013-01-26 06:05:00,24.6,19.9,30.17,NW,308,1.0,1.0,82,0.00,,,0.00,Wunderground v.1.15,2013-01-26 11:05:00,
2013-01-26 06:11:00,24.7,20.0,30.17,NW,308,0.0,0.0,82,0.00,,,0.00,Wunderground v.1.15,2013-01-26 11:11:00,
2013-01-26 06:20:00,24.8,20.1,30.18,NW,308,0.0,0.0,82,0.00,,,0.00,Wunderground v.1.15,2013-01-26 11:20:00,
2013-01-26 06:30:00,24.8,20.1,30.18,NW,308,1.0,1.0,82,0.00,,,0.00,Wunderground v.1.15,2013-01-26 11:30:00,
2013-01-26 06:35:00,24.9,19.9,30.18,NW,308,0.0,1.0,81,0.00,,,0.00,Wunderground v.1.15,2013-01-26 11:35:00,
2013-01-26 06:40:00,24.9,19.9,30.18,NW,308,0.0,0.0,81,0.00,,,0.00,Wunderground v.1.15,2013-01-26 11:40:00,
2013-01-26 06:51:00,24.9,19.9,30.19,NW,308,0.0,1.0,81,0.00,,,0.00,Wunderground v.1.15,2013-01-26 11:51:00,
2013-01-26 07:00:00,25.0,20.0,30.19,NW,308,1.0,1.0,81,0.00,,,0.00,Wunderground v.1.15,2013-01-26 12:00:00,
2013-01-26 07:06:00,25.1,19.8,30.19,NW,308,1.0,1.0,80,0.00,,,0.00,Wunderground v.1.15,2013-01-26 12:06:00,
2013-01-26 07:11:00,25.1,19.8,30.19,NW,326,1.0,4.0,80,0.00,,,0.00,Wunderground v.1.15,2013-01-26 12:11:00,
2013-01-26 07:20:00,25.2,19.9,30.20,North,5,1.0,4.0,80,0.00,,,0.00,Wunderground v.1.15,2013-01-26 12:20:00,
2013-01-26 07:31:00,25.3,19.7,30.21,North,360,1.0,1.0,79,0.00,,,0.00,Wunderground v.1.15,2013-01-26 12:31:00,
2013-01-26 07:36:00,25.3,20.0,30.21,North,360,0.0,0.0,80,0.00,,,0.00,Wunderground v.1.15,2013-01-26 12:36:00,
2013-01-26 07:41:00,25.2,19.6,30.21,North,360,0.0,0.0,79,0.00,,,0.00,Wunderground v.1.15,2013-01-26 12:41:00,
2013-01-26 07:51:00,25.3,19.7,30.21,North,360,0.0,0.0,79,0.00,,,0.00,Wunderground v.1.15,2013-01-26 12:51:00,
2013-01-26 08:00:00,25.3,19.7,30.21,North,360,0.0,1.0,79,0.00,,,0.00,Wunderground v.1.15,2013-01-26 13:00:00,
2013-01-26 08:06:00,25.3,19.4,30.21,North,360,1.0,1.0,78,0.00,,,0.00,Wunderground v.1.15,2013-01-26 13:06:00,
2013-01-26 08:11:00,25.4,19.5,30.21,North,360,0.0,0.0,78,0.00,,,0.00,Wunderground v.1.15,2013-01-26 13:11:00,
2013-01-26 08:20:00,25.6,19.4,30.21,North,360,0.0,2.0,77,0.00,,,0.00,Wunderground v.1.15,2013-01-26 13:20:00,
2013-01-26 08:30:00,25.8,19.6,30.21,North,360,0.0,2.0,77,0.00,,,0.00,Wunderground v.1.15,2013-01-26 13:30:00,
2013-01-26 08:36:00,25.9,19.4,30.22,North,360,0.0,1.0,76,0.00,,,0.00,Wunderground v.1.15,2013-01-26 13:36:00,
2013-01-26 08:41:00,26.1,19.6,30.22,North,360,1.0,1.0,76,0.00,,,0.00,Wunderground v.1.15,2013-01-26 13:41:00,
2013-01-26 08:50:00,26.4,19.9,30.22,North,360,1.0,1.0,76,0.00,,,0.00,Wunderground v.1.15,2013-01-26 13:50:00,
2013-01-26 09:01:00,26.9,20.3,30.22,North,360,0.0,0.0,76,0.00,,,0.00,Wunderground v.1.15,2013-01-26 14:01:00,
2013-01-26 09:10:00,27.0,19.8,30.23,North,360,1.0,1.0,74,0.00,,,0.00,Wunderground v.1.15,2013-01-26 14:10:00,
2013-01-26 09:21:00,27.3,19.8,30.23,North,360,1.0,1.0,73,0.00,,,0.00,Wunderground v.1.15,2013-01-26 14:21:00,
2013-01-26 09:31:00,27.4,19.6,30.23,North,351,1.0,4.0,72,0.00,,,0.00,Wunderground v.1.15,2013-01-26 14:31:00,
2013-01-26 09:45:00,27.6,19.4,30.24,North,360,1.0,1.0,71,0.00,,,0.00,Wunderground v.1.15,2013-01-26 14:45:00,
2013-01-26 09:51:00,27.6,19.4,30.24,North,360,2.0,3.0,71,0.00,,,0.00,Wunderground v.1.15,2013-01-26 14:51:00,
2013-01-26 10:00:00,28.0,19.5,30.24,North,360,2.0,3.0,70,0.00,,,0.00,Wunderground v.1.15,2013-01-26 15:00:00,
2013-01-26 10:05:00,27.9,19.0,30.24,North,360,2.0,3.0,69,0.00,,,0.00,Wunderground v.1.15,2013-01-26 15:05:00,
2013-01-26 10:10:00,28.1,19.6,30.25,North,360,2.0,3.0,70,0.00,,,0.00,Wunderground v.1.15,2013-01-26 15:10:00,
2013-01-26 10:21:00,28.6,19.7,30.25,North,5,3.0,4.0,69,0.00,,,0.00,Wunderground v.1.15,2013-01-26 15:21:00,
2013-01-26 10:30:00,29.0,19.8,30.25,North,5,2.0,4.0,68,0.00,,,0.00,Wunderground v.1.15,2013-01-26 15:30:00,
2013-01-26 10:35:00,29.3,20.0,30.25,North,5,2.0,2.0,68,0.00,,,0.00,Wunderground v.1.15,2013-01-26 15:35:00,
2013-01-26 10:45:00,29.5,20.2,30.26,North,11,2.0,2.0,68,0.00,,,0.00,Wunderground v.1.15,2013-01-26 15:45:00,
2013-01-26 10:51:00,29.6,20.3,30.26,North,10,2.0,2.0,68,0.00,,,0.00,Wunderground v.1.15,2013-01-26 15:51:00,
2013-01-26 11:00:00,29.8,20.2,30.26,North,9,2.0,3.0,67,0.00,,,0.00,Wunderground v.1.15,2013-01-26 16:00:00,
2013-01-26 11:05:00,29.8,20.2,30.26,North,9,2.0,3.0,67,0.00,,,0.00,Wunderground v.1.15,2013-01-26 16:05:00,
2013-01-26 11:11:00,30.3,21.0,30.26,North,5,1.0,1.0,68,0.00,,,0.00,Wunderground v.1.15,2013-01-26 16:11:00,
2013-01-26 11:20:00,31.2,21.2,30.25,North,360,2.0,3.0,66,0.00,,,0.00,Wunderground v.1.15,2013-01-26 16:20:00,
2013-01-26 11:31:00,31.8,21.7,30.25,North,355,2.0,6.0,66,0.00,,,0.00,Wunderground v.1.15,2013-01-26 16:31:00,
2013-01-26 11:36:00,32.1,21.7,30.25,North,351,2.0,6.0,65,0.00,,,0.00,Wunderground v.1.15,2013-01-26 16:36:00,
2013-01-26 11:41:00,32.5,21.7,30.25,North,351,3.0,3.0,64,0.00,,,0.00,Wunderground v.1.15,2013-01-26 16:41:00,
2013-01-26 11:55:00,31.8,21.0,30.25,NNE,17,4.0,7.0,64,0.00,,,0.01,Wunderground v.1.15,2013-01-26 16:55:00,
2013-01-26 12:00:00,32.1,22.0,30.25,NNW,336,3.0,3.0,66,0.00,,,0.01,Wunderground v.1.15,2013-01-26 17:00:00,
2013-01-26 12:10:00,31.7,21.3,30.24,NNE,14,4.0,4.0,65,0.00,,,0.01,Wunderground v.1.15,2013-01-26 17:10:00,
2013-01-26 12:21:00,31.4,21.3,30.24,NNE,24,3.0,3.0,66,0.00,,,0.01,Wunderground v.1.15,2013-01-26 17:21:00,
2013-01-26 12:30:00,31.3,21.6,30.24,North,5,2.0,3.0,67,0.00,,,0.02,Wunderground v.1.15,2013-01-26 17:30:00,
2013-01-26 12:35:00,31.5,21.4,30.23,North,5,1.0,3.0,66,0.00,,,0.02,Wunderground v.1.15,2013-01-26 17:35:00,
2013-01-26 12:41:00,31.5,21.8,30.23,North,5,1.0,3.0,67,0.00,,,0.02,Wunderground v.1.15,2013-01-26 17:41:00,
2013-01-26 12:51:00,31.7,21.3,30.22,North,9,2.0,2.0,65,0.00,,,0.02,Wunderground v.1.15,2013-01-26 17:51:00,
2013-01-26 13:00:00,32.6,21.8,30.22,WNW,288,2.0,2.0,64,0.00,,,0.02,Wunderground v.1.15,2013-01-26 18:00:00,
2013-01-26 13:06:00,32.8,22.0,30.22,NNW,338,2.0,2.0,64,0.00,,,0.02,Wunderground v.1.15,2013-01-26 18:06:00,
2013-01-26 13:15:00,32.4,21.6,30.21,NNW,334,2.0,3.0,64,0.00,,,0.02,Wunderground v.1.15,2013-01-26 18:15:00,
2013-01-26 13:21:00,33.0,21.4,30.21,NNW,342,2.0,2.0,62,0.00,,,0.02,Wunderground v.1.15,2013-01-26 18:21:00,
2013-01-26 13:30:00,33.7,21.7,30.21,WNW,290,2.0,2.0,61,0.00,,,0.02,Wunderground v.1.15,2013-01-26 18:30:00,
2013-01-26 13:35:00,33.8,21.8,30.21,NNW,346,3.0,3.0,61,0.00,,,0.02,Wunderground v.1.15,2013-01-26 18:35:00,
2013-01-26 13:40:00,33.9,21.9,30.21,North,355,3.0,5.0,61,0.00,,,0.02,Wunderground v.1.15,2013-01-26 18:40:00,
2013-01-26 13:55:00,34.4,21.9,30.21,North,9,4.0,4.0,60,0.00,,,0.02,Wunderground v.1.15,2013-01-26 18:55:00,
2013-01-26 14:05:00,33.9,21.5,30.21,North,355,4.0,7.0,60,0.00,,,0.02,Wunderground v.1.15,2013-01-26 19:05:00,
2013-01-26 14:10:00,33.5,21.5,30.22,NNW,341,3.0,3.0,61,0.00,,,0.02,Wunderground v.1.15,2013-01-26 19:10:00,
2013-01-26 14:21:00,34.2,22.1,30.22,NNW,346,3.0,3.0,61,0.00,,,0.02,Wunderground v.1.15,2013-01-26 19:21:00,
2013-01-26 14:30:00,34.5,22.0,30.22,NNW,338,5.0,7.0,60,0.00,,,0.02,Wunderground v.1.15,2013-01-26 19:30:00,
2013-01-26 14:36:00,34.4,22.3,30.22,NNW,340,5.0,7.0,61,0.00,,,0.02,Wunderground v.1.15,2013-01-26 19:36:00,
2013-01-26 14:41:00,34.7,22.6,30.23,NNW,340,4.0,5.0,61,0.00,,,0.02,Wunderground v.1.15,2013-01-26 19:41:00,
2013-01-26 14:50:00,34.7,22.2,30.23,North,360,3.0,5.0,60,0.00,,,0.02,Wunderground v.1.15,2013-01-26 19:50:00,
2013-01-26 15:00:00,34.3,21.8,30.23,NNE,19,3.0,3.0,60,0.00,,,0.02,Wunderground v.1.15,2013-01-26 20:00:00,
2013-01-26 15:06:00,33.9,21.5,30.23,NNE,18,3.0,3.0,60,0.00,,,0.02,Wunderground v.1.15,2013-01-26 20:06:00,
2013-01-26 15:15:00,33.7,21.7,30.24,NNW,336,4.0,11.0,61,0.00,,,0.02,Wunderground v.1.15,2013-01-26 20:15:00,
2013-01-26 15:21:00,33.5,21.5,30.24,North,5,5.0,5.0,61,0.00,,,0.02,Wunderground v.1.15,2013-01-26 20:21:00,
2013-01-26 15:31:00,33.3,21.3,30.25,North,355,3.0,4.0,61,0.00,,,0.02,Wunderground v.1.15,2013-01-26 20:31:00,
2013-01-26 15:40:00,33.2,21.6,30.24,North,351,1.0,4.0,62,0.00,,,0.02,Wunderground v.1.15,2013-01-26 20:40:00,
2013-01-26 15:51:00,33.0,21.4,30.25,NNE,24,1.0,2.0,62,0.00,,,0.02,Wunderground v.1.15,2013-01-26 20:51:00,
2013-01-26 16:00:00,33.1,21.5,30.25,NNW,344,3.0,3.0,62,0.00,,,0.02,Wunderground v.1.15,2013-01-26 21:00:00,
2013-01-26 16:05:00,33.2,22.0,30.25,NNW,344,2.0,3.0,63,0.00,,,0.02,Wunderground v.1.15,2013-01-26 21:05:00,
2013-01-26 16:11:00,33.2,21.6,30.25,NNW,341,2.0,3.0,62,0.00,,,0.02,Wunderground v.1.15,2013-01-26 21:11:00,
2013-01-26 16:21:00,33.1,21.1,30.26,North,355,3.0,3.0,61,0.00,,,0.02,Wunderground v.1.15,2013-01-26 21:21:00,
2013-01-26 16:30:00,33.0,21.4,30.26,NNW,329,2.0,3.0,62,0.00,,,0.02,Wunderground v.1.15,2013-01-26 21:30:00,
2013-01-26 16:35:00,32.9,21.3,30.26,NNW,344,2.0,4.0,62,0.00,,,0.02,Wunderground v.1.15,2013-01-26 21:35:00,
2013-01-26 16:41:00,32.9,21.3,30.26,NNW,344,2.0,4.0,62,0.00,,,0.02,Wunderground v.1.15,2013-01-26 21:41:00,
2013-01-26 16:50:00,32.8,21.6,30.27,NNW,344,0.0,2.0,63,0.00,,,0.02,Wunderground v.1.15,2013-01-26 21:50:00,
2013-01-26 17:00:00,32.6,21.4,30.27,North,11,3.0,3.0,63,0.00,,,0.02,Wunderground v.1.15,2013-01-26 22:00:00,
2013-01-26 17:06:00,32.6,21.4,30.27,North,5,2.0,3.0,63,0.00,,,0.02,Wunderground v.1.15,2013-01-26 22:06:00,
2013-01-26 17:11:00,32.4,21.6,30.28,North,5,1.0,2.0,64,0.00,,,0.02,Wunderground v.1.15,2013-01-26 22:11:00,
2013-01-26 17:21:00,32.2,21.4,30.28,North,5,2.0,2.0,64,0.00,,,0.02,Wunderground v.1.15,2013-01-26 22:21:00,
2013-01-26 17:31:00,32.0,21.2,30.29,North,360,1.0,4.0,64,0.00,,,0.02,Wunderground v.1.15,2013-01-26 22:31:00,
2013-01-26 17:40:00,31.8,21.4,30.29,North,5,1.0,4.0,65,0.00,,,0.02,Wunderground v.1.15,2013-01-26 22:40:00,
2013-01-26 17:51:00,31.5,21.1,30.30,North,5,0.0,0.0,65,0.00,,,0.02,Wunderground v.1.15,2013-01-26 22:51:00,
2013-01-26 18:01:00,31.1,21.1,30.30,North,5,0.0,0.0,66,0.00,,,0.02,Wunderground v.1.15,2013-01-26 23:01:00,
2013-01-26 18:10:00,30.5,20.8,30.31,North,5,0.0,0.0,67,0.00,,,0.02,Wunderground v.1.15,2013-01-26 23:10:00,
2013-01-26 18:21:00,29.8,20.5,30.31,North,5,0.0,0.0,68,0.00,,,0.02,Wunderground v.1.15,2013-01-26 23:21:00,
2013-01-26 18:31:00,29.3,20.4,30.31,North,5,0.0,0.0,69,0.00,,,0.02,Wunderground v.1.15,2013-01-26 23:31:00,
2013-01-26 18:40:00,28.8,20.2,30.32,North,5,0.0,0.0,70,0.00,,,0.02,Wunderground v.1.15,2013-01-26 23:40:00,
2013-01-26 18:50:00,28.5,20.3,30.32,North,5,0.0,0.0,71,0.00,,,0.02,Wunderground v.1.15,2013-01-26 23:50:00,
2013-01-26 19:01:00,28.3,20.1,30.33,North,5,0.0,0.0,71,0.00,,,0.02,Wunderground v.1.15,2013-01-27 00:01:00,
2013-01-26 19:10:00,27.8,19.9,30.33,North,5,0.0,0.0,72,0.00,,,0.02,Wunderground v.1.15,2013-01-27 00:10:00,
2013-01-26 19:21:00,27.3,19.8,30.33,North,5,0.0,0.0,73,0.00,,,0.02,Wunderground v.1.15,2013-01-27 00:21:00,
2013-01-26 19:30:00,26.9,19.7,30.34,North,5,0.0,0.0,74,0.00,,,0.02,Wunderground v.1.15,2013-01-27 00:30:00,
2013-01-26 19:35:00,26.7,19.8,30.34,North,5,0.0,0.0,75,0.00,,,0.02,Wunderground v.1.15,2013-01-27 00:35:00,
2013-01-26 19:40:00,26.6,20.1,30.34,North,5,0.0,0.0,76,0.00,,,0.02,Wunderground v.1.15,2013-01-27 00:40:00,
2013-01-26 19:51:00,26.4,19.9,30.34,North,5,0.0,0.0,76,0.00,,,0.02,Wunderground v.1.15,2013-01-27 00:51:00,
2013-01-26 20:05:00,25.9,19.4,30.35,North,5,0.0,0.0,76,0.00,,,0.02,Wunderground v.1.15,2013-01-27 01:05:00,
2013-01-26 20:10:00,25.8,19.6,30.35,North,5,0.0,0.0,77,0.00,,,0.02,Wunderground v.1.15,2013-01-27 01:10:00,
2013-01-26 20:21:00,25.7,19.8,30.35,North,5,0.0,0.0,78,0.00,,,0.02,Wunderground v.1.15,2013-01-27 01:21:00,
2013-01-26 20:31:00,25.7,19.8,30.36,North,5,0.0,0.0,78,0.00,,,0.02,Wunderground v.1.15,2013-01-27 01:31:00,
2013-01-26 20:40:00,25.6,19.7,30.36,North,5,0.0,0.0,78,0.00,,,0.02,Wunderground v.1.15,2013-01-27 01:40:00,
2013-01-26 20:51:00,25.4,19.8,30.36,North,5,0.0,0.0,79,0.00,,,0.02,Wunderground v.1.15,2013-01-27 01:51:00,
2013-01-26 21:01:00,25.0,19.4,30.37,North,5,0.0,0.0,79,0.00,,,0.02,Wunderground v.1.15,2013-01-27 02:01:00,
2013-01-26 21:15:00,24.6,19.3,30.38,North,5,0.0,0.0,80,0.00,,,0.02,Wunderground v.1.15,2013-01-27 02:15:00,
2013-01-26 21:21:00,24.4,19.1,30.38,North,5,0.0,0.0,80,0.00,,,0.02,Wunderground v.1.15,2013-01-27 02:21:00,
2013-01-26 21:30:00,24.2,18.9,30.39,North,5,0.0,0.0,80,0.00,,,0.02,Wunderground v.1.15,2013-01-27 02:30:00,
2013-01-26 21:35:00,24.1,18.8,30.39,North,5,0.0,0.0,80,0.00,,,0.02,Wunderground v.1.15,2013-01-27 02:35:00,
2013-01-26 21:45:00,23.8,18.5,30.39,North,5,0.0,0.0,80,0.00,,,0.02,Wunderground v.1.15,2013-01-27 02:45:00,
2013-01-26 21:55:00,23.5,18.5,30.40,North,5,0.0,0.0,81,0.00,,,0.02,Wunderground v.1.15,2013-01-27 02:55:00,
2013-01-26 22:00:00,23.3,18.3,30.40,North,5,0.0,0.0,81,0.00,,,0.02,Wunderground v.1.15,2013-01-27 03:00:00,
2013-01-26 22:06:00,23.4,18.7,30.41,North,5,0.0,0.0,82,0.00,,,0.02,Wunderground v.1.15,2013-01-27 03:06:00,
2013-01-26 22:15:00,23.3,18.6,30.41,North,5,0.0,0.0,82,0.00,,,0.02,Wunderground v.1.15,2013-01-27 03:15:00,
2013-01-26 22:21:00,23.4,19.0,30.41,North,5,0.0,0.0,83,0.00,,,0.02,Wunderground v.1.15,2013-01-27 03:21:00,
2013-01-26 22:36:00,23.8,19.1,30.42,North,5,0.0,0.0,82,0.00,,,0.02,Wunderground v.1.15,2013-01-27 03:36:00,
2013-01-26 22:45:00,23.6,18.9,30.42,North,5,0.0,0.0,82,0.00,,,0.02,Wunderground v.1.15,2013-01-27 03:45:00,
2013-01-26 22:50:00,23.4,18.7,30.42,North,5,0.0,0.0,82,0.00,,,0.02,Wunderground v.1.15,2013-01-27 03:50:00,
2013-01-26 23:00:00,23.3,18.6,30.43,North,5,0.0,2.0,82,0.00,,,0.02,Wunderground v.1.15,2013-01-27 04:00:00,
2013-01-26 23:10:00,23.1,18.4,30.44,North,5,0.0,0.0,82,0.00,,,0.02,Wunderground v.1.15,2013-01-27 04:10:00,
2013-01-26 23:25:00,22.9,18.5,30.44,North,5,0.0,0.0,83,0.00,,,0.02,Wunderground v.1.15,2013-01-27 04:25:00,
2013-01-26 23:31:00,22.9,18.5,30.44,North,5,0.0,0.0,83,0.00,,,0.02,Wunderground v.1.15,2013-01-27 04:31:00,
2013-01-26 23:45:00,22.6,18.2,30.44,North,5,0.0,0.0,83,0.00,,,0.02,Wunderground v.1.15,2013-01-27 04:45:00,
2013-01-26 23:50:00,22.4,18.0,30.44,North,5,0.0,0.0,83,0.00,,,0.02,Wunderground v.1.15,2013-01-27 04:50:00,